Location: Braunsdorf
(50.7357°N, 11.9136°E)
Time: 20:42:40
(UTC+00:00)

Spot 2 - Pass Details

Date: 17 February 2020
Orbit: 570 x 773 km, 98.7° (Epoch: 07 April)

Event Time Altitude Azimuth Distance (km) Brightness Sun altitude
Rises 04:03:00 0° 12° (NNE) 2,790 7.7 -22.6°
Reaches altitude 10° 04:05:09 10° 9° (N) 1,890 6.7 -22.2°
Enters shadow 04:08:54 60° 311° (NW) 666 3.9 -21.6°
